Location: Unspecified
(0.0000°N, 0.0000°E)
Time: 07:47:28
(UTC+00:00)

Vanguard 2 Rocket - Pass Details

Date: 10 October 2023
Orbit: 552 x 3312 km, 32.9° (Epoch: 06 December)

Event Time Altitude Azimuth Distance (km) Brightness Sun altitude
Rises 03:40:58 0° 235° (SW) 2,793 - -31.3°
Reaches altitude 10° 03:42:55 10° 235° (SW) 1,991 - -30.8°
Maximum altitude 03:47:19 89° 144° (SE) 785 - -29.7°
Exits shadow 03:48:02 68° 58° (ENE) 873 6.8 -29.6°
Drops below altitude 10° 03:54:12 10° 55° (NE) 3,058 10.1 -28.0°
Sets 03:57:51 0° 55° (NE) 4,453 11.1 -27.1°
